Location: Newark
(33.6439°N, 114.9881°W)
Time: 08:17:06
(UTC+00:00)

A-11 Canister half - Pass Details

Date: 29 August 2019
Orbit: 1527 x 1682 km, 47.3° (Epoch: 20 September)

Event Time Altitude Azimuth Distance (km) Brightness Sun altitude
Rises 20:07:20 0° 283° (WNW) 4,854 11.6 64.8°
Reaches altitude 10° 20:10:49 10° 292° (WNW) 3,888 11.2 64.6°
Maximum altitude 20:19:54 37° 357° (N) 2,392 10.3 64.0°
Drops below altitude 10° 20:29:07 10° 63° (ENE) 3,946 11.0 63.2°
Sets 20:32:41 0° 71° (ENE) 4,933 11.5 62.8°
